When you browse on this site, cookies collect data to enhance your experience and personalize the content and advertising you see.
Visit our Privacy Policy to learn more. By continuing to use the site, you agree to this use of cookies and data.
  • In Netherlands
  • List of Countries
  • For 7 days
  • Water Temperature
  • Satellite Maps
  • Weather Map
  • Weather Widgets
  • user-avatar
    Login

    Hourly Weather Megri

    Today, 16 January, Wednesday

    Time Temperature Precipitation Wind Pressure Humidity
    00:00 -4°C° 0 mm 3 mps 618 mmHg 85%
    01:00 -4°C° 0 mm 3 mps 618 mmHg 86%
    02:00 -4°C° 0 mm 3 mps 618 mmHg 86%
    03:00 -4°C° 0 mm 4 mps 618 mmHg 88%
    04:00 -4°C° 0 mm 3 mps 617 mmHg 89%
    05:00 -4°C° 0 mm 3 mps 617 mmHg 90%
    06:00 -4°C° 0 mm 3 mps 617 mmHg 91%
    07:00 -4°C° 0 mm 3 mps 617 mmHg 88%
    08:00 -2°C° 0 mm 3 mps 617 mmHg 86%
    09:00 -2°C° 0 mm 3 mps 617 mmHg 83%
    10:00 -1°C° 0 mm 3 mps 617 mmHg 75%
    11:00 -1°C° 0 mm 4 mps 617 mmHg 68%
    12:00 0°C° 0 mm 4 mps 616 mmHg 60%
    13:00 +1°C° 0 mm 4 mps 616 mmHg 58%
    14:00 +1°C° 0 mm 4 mps 615 mmHg 56%
    15:00 +2°C° 0 mm 3 mps 615 mmHg 55%
    16:00 0°C° 0 mm 3 mps 615 mmHg 56%
    17:00 -1°C° 0 mm 3 mps 614 mmHg 58%
    18:00 -2°C° 0 mm 2 mps 614 mmHg 60%
    19:00 -2°C° 0 mm 2 mps 613 mmHg 62%
    20:00 -2°C° 0 mm 2 mps 613 mmHg 64%
    21:00 -2°C° 0 mm 2 mps 613 mmHg 66%
    22:00 -2°C° 0 mm 2 mps 612 mmHg 71%
    23:00 -2°C° 0 mm 2 mps 612 mmHg 75%

    Tomorrow, 17 January, Thursday

    Time Temperature Precipitation Wind Pressure Humidity
    00:00 -2°C° 0 mm 2 mps 612 mmHg 80%
    01:00 -2°C° 0 mm 2 mps 611 mmHg 82%
    02:00 -2°C° 0 mm 2 mps 611 mmHg 83%
    03:00 -2°C° 0 mm 2 mps 611 mmHg 85%
    04:00 -2°C° 0.3 mm 2 mps 611 mmHg 87%
    05:00 0°C° 0.3 mm 1 mps 610 mmHg 88%
    06:00 0°C° 0.3 mm 1 mps 610 mmHg 90%
    07:00 +1°C° 0.2 mm 1 mps 611 mmHg 88%
    08:00 +1°C° 0.2 mm 1 mps 611 mmHg 87%
    09:00 +1°C° 0.2 mm 1 mps 611 mmHg 86%
    10:00 +1°C° 0.3 mm 1 mps 611 mmHg 83%
    11:00 +1°C° 0.3 mm 1 mps 611 mmHg 81%
    12:00 +1°C° 0.3 mm 1 mps 611 mmHg 78%
    13:00 +1°C° 0.3 mm 1 mps 611 mmHg 78%
    14:00 +1°C° 0.3 mm 1 mps 611 mmHg 78%
    15:00 -1°C° 0.3 mm 2 mps 611 mmHg 78%
    16:00 -2°C° 1.1 mm 2 mps 612 mmHg 82%
    17:00 -3°C° 1.1 mm 2 mps 612 mmHg 86%
    18:00 -3°C° 1.1 mm 2 mps 613 mmHg 90%
    19:00 -4°C° 1.2 mm 2 mps 613 mmHg 90%
    20:00 -4°C° 1.2 mm 2 mps 613 mmHg 91%
    21:00 -5°C° 1.2 mm 2 mps 614 mmHg 92%
    22:00 -5°C° 0.5 mm 2 mps 614 mmHg 92%
    23:00 -5°C° 0.5 mm 2 mps 614 mmHg 91%

    Day after tomorrow, 18 January, Friday

    Time Temperature Precipitation Wind Pressure Humidity
    00:00 -6°C° 0.5 mm 2 mps 615 mmHg 91%
    01:00 -6°C° 0.2 mm 2 mps 615 mmHg 91%
    02:00 -6°C° 0.2 mm 2 mps 616 mmHg 91%
    03:00 -7°C° 0.2 mm 2 mps 616 mmHg 91%
    04:00 -7°C° 0.2 mm 2 mps 616 mmHg 90%
    05:00 -7°C° 0.2 mm 2 mps 617 mmHg 90%
    06:00 -7°C° 0.2 mm 2 mps 617 mmHg 90%
    07:00 -7°C° 0.2 mm 2 mps 618 mmHg 88%
    08:00 -6°C° 0.2 mm 2 mps 618 mmHg 86%
    09:00 -4°C° 0.2 mm 1 mps 619 mmHg 84%
    10:00 -6°C° 0.2 mm 2 mps 619 mmHg 83%
    11:00 -5°C° 0.2 mm 2 mps 619 mmHg 81%
    12:00 -5°C° 0.2 mm 2 mps 619 mmHg 79%
    13:00 -5°C° 0.2 mm 2 mps 619 mmHg 78%
    14:00 -4°C° 0.2 mm 2 mps 619 mmHg 77%
    15:00 -4°C° 0.2 mm 2 mps 619 mmHg 76%
    16:00 -5°C° 0.1 mm 2 mps 619 mmHg 78%
    17:00 -4°C° 0.1 mm 1 mps 619 mmHg 80%
    18:00 -6°C° 0.1 mm 1 mps 619 mmHg 82%
    19:00 -7°C° 0 mm 1 mps 619 mmHg 81%
    20:00 -7°C° 0 mm 1 mps 619 mmHg 80%
    21:00 -8°C° 0 mm 1 mps 619 mmHg 80%
    22:00 -8°C° 0 mm 1 mps 619 mmHg 79%
    23:00 -9°C° 0 mm 1 mps 619 mmHg 77%

    19 January, Saturday

    Time Temperature Precipitation Wind Pressure Humidity
    00:00 -9°C° 0 mm 1 mps 619 mmHg 76%
    01:00 -9°C° 0 mm 1 mps 619 mmHg 76%
    02:00 -10°C° 0 mm 1 mps 619 mmHg 77%
    03:00 -10°C° 0 mm 1 mps 619 mmHg 77%
    04:00 -10°C° 0 mm 1 mps 619 mmHg 77%
    05:00 -10°C° 0 mm 1 mps 619 mmHg 78%
    06:00 -10°C° 0 mm 1 mps 619 mmHg 79%
    07:00 -9°C° 0 mm 1 mps 619 mmHg 78%
    08:00 -8°C° 0 mm 1 mps 620 mmHg 76%
    09:00 -7°C° 0 mm 1 mps 620 mmHg 75%
    10:00 -7°C° 0 mm 2 mps 620 mmHg 71%
    11:00 -6°C° 0 mm 2 mps 620 mmHg 68%
    12:00 -5°C° 0 mm 2 mps 621 mmHg 64%
    13:00 -4°C° 0 mm 2 mps 620 mmHg 65%
    14:00 -4°C° 0 mm 2 mps 620 mmHg 65%
    15:00 -4°C° 0 mm 2 mps 620 mmHg 66%
    16:00 -6°C° 0 mm 2 mps 620 mmHg 67%
    17:00 -7°C° 0 mm 1 mps 619 mmHg 69%
    18:00 -9°C° 0 mm 1 mps 619 mmHg 70%
    19:00 -9°C° 0 mm 1 mps 619 mmHg 67%
    20:00 -9°C° 0 mm 1 mps 620 mmHg 63%
    21:00 -9°C° 0 mm 1 mps 620 mmHg 60%
    22:00 -9°C° 0 mm 1 mps 620 mmHg 58%
    23:00 -9°C° 0 mm 1 mps 620 mmHg 55%

    20 January, Sunday

    Time Temperature Precipitation Wind Pressure Humidity
    00:00 -9°C° 0 mm 1 mps 620 mmHg 53%
    01:00 -9°C° 0 mm 1 mps 620 mmHg 53%
    02:00 -9°C° 0 mm 1 mps 620 mmHg 53%
    03:00 -10°C° 0 mm 1 mps 620 mmHg 53%
    04:00 -10°C° 0 mm 1 mps 620 mmHg 54%
    05:00 -10°C° 0 mm 1 mps 619 mmHg 54%
    06:00 -10°C° 0 mm 1 mps 619 mmHg 55%
    07:00 -9°C° 0 mm 1 mps 620 mmHg 56%
    08:00 -8°C° 0 mm 1 mps 621 mmHg 56%
    09:00 -6°C° 0 mm 1 mps 622 mmHg 57%
    10:00 -4°C° 0 mm 1 mps 622 mmHg 56%
    11:00 -3°C° 0 mm 1 mps 622 mmHg 55%
    12:00 -1°C° 0 mm 1 mps 622 mmHg 54%
    13:00 -1°C° 0 mm 1 mps 622 mmHg 57%
    14:00 -1°C° 0 mm 1 mps 621 mmHg 60%
    15:00 -1°C° 0 mm 1 mps 621 mmHg 62%
    16:00 -4°C° 0 mm 0 mps 621 mmHg 65%
    17:00 -6°C° 0 mm 0 mps 620 mmHg 67%
    18:00 -8°C° 0 mm 0 mps 619 mmHg 70%
    19:00 -8°C° 0 mm 0 mps 620 mmHg 70%
    20:00 -8°C° 0 mm 0 mps 620 mmHg 69%
    21:00 -8°C° 0 mm 1 mps 620 mmHg 69%
    22:00 -8°C° 0 mm 1 mps 620 mmHg 70%
    23:00 -9°C° 0 mm 1 mps 620 mmHg 70%

    21 January, Monday

    Time Temperature Precipitation Wind Pressure Humidity
    00:00 -9°C° 0 mm 1 mps 620 mmHg 71%
    01:00 -9°C° 0 mm 1 mps 620 mmHg 71%
    02:00 -9°C° 0 mm 1 mps 620 mmHg 72%
    03:00 -9°C° 0 mm 1 mps 619 mmHg 73%
    04:00 -9°C° 0 mm 1 mps 619 mmHg 73%
    05:00 -9°C° 0 mm 1 mps 619 mmHg 73%
    06:00 -9°C° 0 mm 1 mps 619 mmHg 74%
    07:00 -8°C° 0 mm 1 mps 620 mmHg 73%
    08:00 -7°C° 0 mm 1 mps 620 mmHg 73%
    09:00 -6°C° 0 mm 1 mps 621 mmHg 72%
    10:00 -4°C° 0 mm 1 mps 621 mmHg 70%
    11:00 -5°C° 0 mm 2 mps 621 mmHg 68%
    12:00 -3°C° 0 mm 2 mps 620 mmHg 67%
    13:00 -3°C° 0 mm 2 mps 620 mmHg 68%
    14:00 -3°C° 0 mm 2 mps 620 mmHg 69%
    15:00 -3°C° 0 mm 2 mps 619 mmHg 70%
    16:00 -5°C° 0 mm 2 mps 619 mmHg 73%
    17:00 -7°C° 0 mm 2 mps 619 mmHg 75%
    18:00 -9°C° 0 mm 2 mps 618 mmHg 78%
    19:00 -9°C° 0 mm 2 mps 618 mmHg 77%
    20:00 -9°C° 0 mm 2 mps 618 mmHg 76%
    21:00 -9°C° 0 mm 2 mps 618 mmHg 74%
    22:00 -10°C° 0 mm 2 mps 618 mmHg 72%
    23:00 -10°C° 0 mm 2 mps 618 mmHg 69%
    Show more